Change the Weather History Date:

Wednesday, February 26, 2014

  Actual Average Record
Temperature  
Mean Temperature 16 °F -  
Max Temperature 25 °F 39 °F 64 °F (2002)
Min Temperature 5 °F 19 °F -3 °F (1964)
Degree Days  
Heating Degree Days 50    
Moisture  
Dew Point 6 °F    
Average Humidity 66    
Maximum Humidity 91    
Minimum Humidity 32    
Precipitation  
Precipitation 0.00 in - - ()
Sea Level Pressure  
Sea Level Pressure 29.88 in    
Wind  
Wind Speed 3 mph (WNW)    
Max Wind Speed 13 mph    
Max Gust Speed 22 mph    
Visibility 8 miles    
Events Snow    
Averages and records for this station are not official NWS values.
T = Trace of Precipitation, MM = Missing Value Source: NWS Daily Summary

Daily Weather History Graph

Daily Weather History Graph

Search for Another Location

Airport or City:

Trip Planner

Search our weather history database for the weather conditions in past years. The results will help you decide how hot, cold, wet, or windy it might be!

Date:

Astronomy

Feb. 26, 2014 Rise Set
Actual Time 6:37 AM EST 5:45 PM EST
Civil Twilight 6:09 AM EST 6:13 PM EST
Nautical Twilight 5:37 AM EST 6:45 PM EST
Astronomical Twilight 5:05 AM EST 7:17 PM EST
Moon 4:22 AM EST (2/26) 2:56 PM EST (2/26)
Length of Visible Light 12h 03m
Length of Day
11h 08m
Waning Crescent, 10% of the Moon is Illuminated
Feb 26
Waning Crescent
Mar 1
New
Mar 8
First Quarter
Mar 16
Full
Mar 23
Last Quarter

Hourly Weather History & Observations

Time (EST) Temp. Windchill Dew Point Humidity Pressure Visibility Wind Dir Wind Speed Gust Speed Precip Events Conditions
12:53 AM 8.1 °F - 3.9 °F 83% 29.96 in 10.0 mi Calm Calm - N/A   Clear
1:53 AM 8.1 °F - 3.9 °F 83% 29.94 in 10.0 mi Calm Calm - N/A   Clear
2:53 AM 7.0 °F - 3.0 °F 84% 29.92 in 9.0 mi Calm Calm - N/A   Clear
3:53 AM 6.1 °F - 3.9 °F 91% 29.91 in 10.0 mi Calm Calm - N/A   Clear
4:53 AM 8.1 °F - 3.9 °F 83% 29.89 in 10.0 mi Calm Calm - N/A   Partly Cloudy
5:53 AM 9.0 °F - 5.0 °F 84% 29.87 in 10.0 mi Calm Calm - N/A   Clear
6:53 AM 10.0 °F - 7.0 °F 87% 29.87 in 10.0 mi Calm Calm - N/A   Overcast
7:53 AM 12.9 °F - 9.0 °F 84% 29.88 in 4.0 mi Calm Calm - 0.00 in Snow Light Snow
8:02 AM 12.9 °F - 10.0 °F 88% 29.86 in 2.5 mi Calm Calm - 0.00 in Snow Light Snow
8:13 AM 14.0 °F - 10.9 °F 88% 29.86 in 6.0 mi Calm Calm - 0.00 in Snow Light Snow
8:53 AM 19.9 °F 12.1 °F 12.0 °F 71% 29.88 in 10.0 mi SW 5.8 mph - 0.00 in   Overcast
9:53 AM 23.0 °F 13.9 °F 16.0 °F 74% 29.90 in 10.0 mi SSW 8.1 mph - 0.00 in   Mostly Cloudy
10:50 AM 24.8 °F 16.1 °F 14.0 °F 64% 29.88 in 2.5 mi WNW 8.1 mph - 0.00 in Snow Light Snow
10:51 AM 24.8 °F 16.1 °F 15.8 °F 69% 29.88 in 1.8 mi WNW 8.1 mph - 0.00 in Snow Light Snow
10:53 AM 24.1 °F 14.4 °F 15.1 °F 69% 29.90 in 1.0 mi NW 9.2 mph - 0.00 in Snow Light Snow
11:00 AM 23.0 °F 13.9 °F 17.1 °F 78% 29.88 in 0.8 mi West 8.1 mph - 0.00 in Snow Light Snow
11:04 AM 23.0 °F 15.8 °F 16.0 °F 74% 29.88 in 1.5 mi Variable 5.8 mph - 0.00 in Snow Light Snow
11:12 AM 21.9 °F 11.7 °F 16.0 °F 78% 29.88 in 0.8 mi NW 9.2 mph - 0.00 in Snow Light Snow
11:25 AM 23.0 °F 13.9 °F 16.0 °F 74% 29.87 in 1.5 mi NNW 8.1 mph - 0.00 in Snow Light Snow
11:28 AM 23.0 °F 15.8 °F 16.0 °F 74% 29.87 in 3.0 mi Variable 5.8 mph - 0.00 in Snow Light Snow
11:48 AM 24.8 °F 16.9 °F 12.2 °F 59% 29.86 in 10.0 mi NW 6.9 mph 16.1 mph 0.00 in   Mostly Cloudy
11:53 AM 24.1 °F 12.5 °F 10.9 °F 57% 29.88 in 10.0 mi WNW 12.7 mph 21.9 mph 0.00 in   Mostly Cloudy
12:53 PM 24.1 °F 15.2 °F 7.0 °F 48% 29.86 in 10.0 mi West 8.1 mph 21.9 mph 0.00 in   Mostly Cloudy
1:53 PM 25.0 °F 14.8 °F 5.0 °F 43% 29.85 in 10.0 mi WNW 10.4 mph 18.4 mph 0.00 in   Mostly Cloudy
2:53 PM 25.0 °F 15.5 °F 3.0 °F 39% 29.85 in 10.0 mi NW 9.2 mph 21.9 mph 0.00 in   Scattered Clouds
3:53 PM 24.1 °F 13.1 °F -2.0 °F 32% 29.85 in 10.0 mi NW 11.5 mph - N/A   Clear
4:53 PM 23.0 °F 13.9 °F -2.9 °F 32% 29.85 in 10.0 mi WNW 8.1 mph - N/A   Clear
5:53 PM 19.9 °F 12.1 °F -6.0 °F 32% 29.85 in 10.0 mi North 5.8 mph - N/A   Clear
6:53 PM 18.0 °F 12.7 °F -7.1 °F 33% 29.86 in 10.0 mi North 3.5 mph - N/A   Clear
7:53 PM 15.1 °F - -5.1 °F 41% 29.87 in 10.0 mi Calm Calm - N/A   Clear
8:53 PM 12.0 °F - -2.0 °F 53% 29.87 in 10.0 mi Calm Calm - N/A   Clear
9:53 PM 9.0 °F - -2.0 °F 61% 29.88 in 10.0 mi Calm Calm - N/A   Clear
10:53 PM 6.1 °F - -2.0 °F 69% 29.88 in 10.0 mi Calm Calm - N/A   Clear
11:53 PM 5.0 °F - -2.9 °F 70% 29.87 in 10.0 mi Calm Calm - N/A   Clear